ESTEVAN POINT, British Columbia

12:06 PM PST on December 09, 2016 (GMT -0800)
Estevan Point

Weather History for CWEB - February, 2014

Change the Weather History Date:

Monday, February 10, 2014

  Actual Average Record
Temperature  
Mean Temperature 45 °F -  
Max Temperature 50 °F - - ()
Min Temperature 40 °F - - ()
Degree Days  
Heating Degree Days 20    
Moisture  
Dew Point -    
Average Humidity    
Maximum Humidity    
Minimum Humidity    
Precipitation  
Precipitation 0.00 in - - ()
Sea Level Pressure  
Sea Level Pressure 29.87 in    
Wind  
Wind Speed 13 mph ()    
Max Wind Speed 22 mph    
Max Gust Speed 34 mph    
T = Trace of Precipitation, MM = Missing Value Source: Averaged Metar Reports

Daily Weather History Graph

Daily Weather History Graph

Search for Another Location

Airport or City:

Trip Planner

Search our weather history database for the weather conditions in past years. The results will help you decide how hot, cold, wet, or windy it might be!

Date:

Astronomy

Feb. 10, 2014 Rise Set
Actual Time 7:43 AM PST 5:37 PM PST
Civil Twilight 7:10 AM PST 6:11 PM PST
Nautical Twilight 6:32 AM PST 6:48 PM PST
Astronomical Twilight 5:55 AM PST 7:25 PM PST
Moon 2:02 PM PST (2/10) 4:51 AM PST (2/10)
Length of Visible Light 11h 00m
Length of Day
9h 54m
Waxing Gibbous, 85% of the Moon is Illuminated
Feb 10
Waxing Gibbous
Feb 14
Full
Feb 22
Last Quarter
Mar 1
New
Mar 8
First Quarter

Hourly Weather History & Observations

Time (PST) Temp. Windchill Dew Point Humidity Pressure Visibility Wind Dir Wind Speed Gust Speed Precip Events Conditions
12:00 AM 41.2 °F 34.5 °F - N/A% 29.93 in - East 11.5 mph 21.9 mph N/A   Unknown
1:00 AM 42 °F - - % 29.90 in - East 11.5 mph - -  
1:00 AM 42.1 °F 35.7 °F - N/A% 29.90 in - East 11.5 mph 21.9 mph N/A   Unknown
2:00 AM 41.2 °F 34.1 °F - N/A% 29.88 in - East 12.7 mph 19.6 mph N/A   Unknown
3:00 AM 41.4 °F 34.3 °F - N/A% 29.87 in - East 12.7 mph 21.9 mph N/A   Unknown
4:00 AM 42 °F - - % 29.84 in - East 13.8 mph - -  
4:00 AM 40.1 °F 32.4 °F - N/A% 29.84 in - East 13.8 mph 20.7 mph N/A   Unknown
5:00 AM 41.9 °F 35.0 °F - N/A% 29.81 in - East 12.7 mph 26.5 mph N/A   Unknown
6:00 AM 42.6 °F 34.9 °F - N/A% 29.79 in - East 16.1 mph 25.3 mph N/A   Unknown
7:00 AM 42 °F - - % 29.78 in - East 20.7 mph - -  
7:00 AM 42.3 °F 33.3 °F - N/A% 29.78 in - East 20.7 mph 34.5 mph N/A   Unknown
8:00 AM 42.4 °F 33.5 °F - N/A% 29.79 in - East 20.7 mph 32.2 mph N/A   Unknown
9:00 AM 42.6 °F 34.6 °F - N/A% 29.84 in - East 17.3 mph 28.8 mph N/A   Unknown
10:00 AM 44 °F - - % 29.85 in - ESE 8.1 mph - -  
10:00 AM 43.5 °F 38.9 °F - N/A% 29.85 in - ESE 8.1 mph - N/A   Unknown
11:00 AM 45.7 °F 39.1 °F - N/A% 29.86 in - SSE 15.0 mph - N/A   Unknown
12:00 PM 45.5 °F 38.3 °F - N/A% 29.89 in - SSW 17.3 mph - N/A   Unknown
1:00 PM 50 °F - - % 29.91 in - SW 10.4 mph - -  
1:00 PM 49.6 °F - - N/A% 29.91 in - SW 10.4 mph - N/A   Unknown
2:00 PM 50.0 °F - - N/A% 29.91 in - South 3.5 mph - N/A   Unknown
3:00 PM 47.1 °F - - N/A% 29.90 in - SE 9.2 mph - N/A   Unknown
4:00 PM 46 °F - - % 29.89 in - SSE 12.7 mph - -  
4:00 PM 45.9 °F 40.0 °F - N/A% 29.89 in - SSE 12.7 mph - N/A   Unknown
5:00 PM 44.6 °F 36.9 °F - N/A% 29.88 in - SE 18.4 mph - N/A   Unknown
6:00 PM 45.1 °F 36.9 °F - N/A% 29.87 in - SSE 21.9 mph - N/A   Unknown
7:00 PM 47 °F - - % 29.88 in - SSW 19.6 mph - -  
7:00 PM 46.6 °F - - N/A% 29.88 in - SSW 19.6 mph - N/A   Unknown
8:00 PM 45.3 °F 37.6 °F - N/A% 29.89 in - SW 19.6 mph 25.3 mph N/A   Unknown
9:00 PM 43.7 °F 36.0 °F - N/A% 29.90 in - SW 17.3 mph - N/A   Unknown
10:00 PM 45 °F - - % 29.94 in - WSW 19.6 mph - -  
10:00 PM 44.6 °F 36.6 °F - N/A% 29.94 in - WSW 19.6 mph - N/A   Unknown
11:00 PM 44.2 °F 35.7 °F - N/A% 29.97 in - West 21.9 mph - N/A   Unknown